• Em Portugal
  • Lista de países
  • Para 7 dias
  • Temperatura da água
  • Mapas de satélite
  • Mapa do tempo
  • Widgets de tempo
  • user-avatar
    Iniciar Sessão

    Previsão horária em Kalat

    Hoje, 23 Janeiro, Terça-feira

    Tempo Temperatura Precipitação Vento Pressão Humidade
    00:00 -21°C° 0 mm 3 m/s 465 mmHg 46%
    01:00 -19°C° 0 mm 2 m/s 464 mmHg 45%
    02:00 -19°C° 0 mm 2 m/s 464 mmHg 43%
    03:00 -19°C° 0 mm 2 m/s 464 mmHg 43%
    04:00 -19°C° 0 mm 2 m/s 464 mmHg 43%
    05:00 -20°C° 0 mm 2 m/s 464 mmHg 42%
    06:00 -19°C° 0 mm 2 m/s 464 mmHg 43%
    07:00 -19°C° 0 mm 2 m/s 464 mmHg 43%
    08:00 -19°C° 0 mm 2 m/s 464 mmHg 44%
    09:00 -17°C° 0 mm 2 m/s 466 mmHg 43%
    10:00 -13°C° 0 mm 1 m/s 467 mmHg 43%
    11:00 -10°C° 0 mm 1 m/s 469 mmHg 42%
    12:00 -10°C° 0 mm 1 m/s 469 mmHg 42%
    13:00 -9°C° 0 mm 1 m/s 468 mmHg 42%
    14:00 -9°C° 0 mm 1 m/s 468 mmHg 42%
    15:00 -10°C° 0 mm 1 m/s 467 mmHg 48%
    16:00 -12°C° 0 mm 1 m/s 466 mmHg 53%
    17:00 -13°C° 0 mm 1 m/s 465 mmHg 58%
    18:00 -14°C° 0 mm 1 m/s 464 mmHg 56%
    19:00 -17°C° 0 mm 2 m/s 464 mmHg 54%
    20:00 -19°C° 0 mm 2 m/s 464 mmHg 52%
    21:00 -21°C° 0 mm 3 m/s 464 mmHg 48%
    22:00 -21°C° 0 mm 3 m/s 464 mmHg 45%
    23:00 -21°C° 0 mm 3 m/s 463 mmHg 41%

    Amanhã, 24 Janeiro, Quarta-feira

    Tempo Temperatura Precipitação Vento Pressão Humidade
    00:00 -21°C° 0 mm 3 m/s 463 mmHg 37%
    01:00 -21°C° 0 mm 3 m/s 463 mmHg 32%
    02:00 -21°C° 0 mm 3 m/s 463 mmHg 28%
    03:00 -21°C° 0 mm 3 m/s 463 mmHg 25%
    04:00 -19°C° 0 mm 3 m/s 463 mmHg 22%
    05:00 -19°C° 0 mm 3 m/s 463 mmHg 19%
    06:00 -19°C° 0 mm 3 m/s 463 mmHg 20%
    07:00 -17°C° 0 mm 2 m/s 464 mmHg 20%
    08:00 -17°C° 0 mm 2 m/s 464 mmHg 20%
    09:00 -15°C° 0 mm 2 m/s 466 mmHg 24%
    10:00 -10°C° 0 mm 1 m/s 468 mmHg 27%
    11:00 -8°C° 0 mm 1 m/s 469 mmHg 31%
    12:00 -7°C° 0 mm 1 m/s 469 mmHg 34%
    13:00 -7°C° 0 mm 1 m/s 469 mmHg 38%
    14:00 -8°C° 0 mm 2 m/s 469 mmHg 41%
    15:00 -8°C° 0 mm 1 m/s 468 mmHg 47%
    16:00 -10°C° 0 mm 1 m/s 467 mmHg 52%
    17:00 -12°C° 0 mm 1 m/s 466 mmHg 57%
    18:00 -13°C° 0 mm 1 m/s 465 mmHg 58%
    19:00 -14°C° 0 mm 1 m/s 465 mmHg 58%
    20:00 -17°C° 0 mm 2 m/s 465 mmHg 59%
    21:00 -17°C° 0 mm 2 m/s 465 mmHg 59%
    22:00 -17°C° 0 mm 2 m/s 465 mmHg 59%
    23:00 -17°C° 0 mm 2 m/s 465 mmHg 59%

    Depois de amanhã, 25 Janeiro, Quinta-feira

    Tempo Temperatura Precipitação Vento Pressão Humidade
    00:00 -17°C° 0 mm 2 m/s 465 mmHg 60%
    01:00 -18°C° 0 mm 2 m/s 465 mmHg 60%
    02:00 -18°C° 0 mm 2 m/s 464 mmHg 61%
    03:00 -18°C° 0 mm 2 m/s 464 mmHg 63%
    04:00 -18°C° 0 mm 2 m/s 464 mmHg 65%
    05:00 -18°C° 0 mm 2 m/s 464 mmHg 66%
    06:00 -18°C° 0 mm 2 m/s 464 mmHg 69%
    07:00 -18°C° 0 mm 2 m/s 465 mmHg 71%
    08:00 -18°C° 0 mm 2 m/s 465 mmHg 74%
    09:00 -17°C° 0 mm 2 m/s 466 mmHg 72%
    10:00 -15°C° 0 mm 2 m/s 467 mmHg 70%
    11:00 -14°C° 0 mm 3 m/s 468 mmHg 68%
    12:00 -14°C° 0 mm 3 m/s 468 mmHg 68%
    13:00 -13°C° 0 mm 3 m/s 468 mmHg 68%
    14:00 -13°C° 0 mm 3 m/s 468 mmHg 68%
    15:00 -14°C° 0 mm 3 m/s 467 mmHg 72%
    16:00 -15°C° 0 mm 3 m/s 467 mmHg 76%
    17:00 -16°C° 0 mm 2 m/s 466 mmHg 80%
    18:00 -18°C° 0 mm 3 m/s 466 mmHg 81%
    19:00 -19°C° 0 mm 3 m/s 465 mmHg 82%
    20:00 -21°C° 0 mm 3 m/s 465 mmHg 83%
    21:00 -21°C° 0 mm 3 m/s 465 mmHg 82%
    22:00 -21°C° 0 mm 3 m/s 465 mmHg 81%
    23:00 -21°C° 0 mm 3 m/s 465 mmHg 80%

    26 Janeiro, Sexta-feira

    Tempo Temperatura Precipitação Vento Pressão Humidade
    00:00 -21°C° 0 mm 3 m/s 465 mmHg 80%
    01:00 -22°C° 0 mm 3 m/s 465 mmHg 80%
    02:00 -22°C° 0 mm 3 m/s 465 mmHg 80%
    03:00 -22°C° 0 mm 3 m/s 465 mmHg 80%
    04:00 -22°C° 0 mm 3 m/s 464 mmHg 80%
    05:00 -23°C° 0 mm 3 m/s 464 mmHg 80%
    06:00 -23°C° 0 mm 3 m/s 464 mmHg 80%
    07:00 -23°C° 0 mm 3 m/s 465 mmHg 79%
    08:00 -23°C° 0 mm 3 m/s 465 mmHg 78%
    09:00 -21°C° 0 mm 3 m/s 466 mmHg 73%
    10:00 -16°C° 0 mm 2 m/s 467 mmHg 68%
    11:00 -14°C° 0 mm 2 m/s 469 mmHg 63%
    12:00 -14°C° 0 mm 2 m/s 469 mmHg 63%
    13:00 -14°C° 0 mm 3 m/s 469 mmHg 62%
    14:00 -14°C° 0 mm 3 m/s 469 mmHg 62%
    15:00 -15°C° 0 mm 3 m/s 467 mmHg 67%
    16:00 -15°C° 0 mm 2 m/s 466 mmHg 71%
    17:00 -17°C° 0 mm 2 m/s 465 mmHg 76%
    18:00 -18°C° 0 mm 2 m/s 465 mmHg 77%
    19:00 -21°C° 0 mm 3 m/s 465 mmHg 77%
    20:00 -22°C° 0 mm 3 m/s 464 mmHg 78%
    21:00 -22°C° 0 mm 3 m/s 464 mmHg 77%
    22:00 -22°C° 0 mm 3 m/s 464 mmHg 76%
    23:00 -23°C° 0 mm 3 m/s 464 mmHg 75%

    27 Janeiro, Sábado

    Tempo Temperatura Precipitação Vento Pressão Humidade
    00:00 -22°C° 0 mm 3 m/s 464 mmHg 75%
    01:00 -22°C° 0 mm 3 m/s 464 mmHg 75%
    02:00 -22°C° 0 mm 3 m/s 464 mmHg 76%
    03:00 -22°C° 0 mm 3 m/s 464 mmHg 76%
    04:00 -22°C° 0 mm 3 m/s 464 mmHg 77%
    05:00 -22°C° 0 mm 3 m/s 463 mmHg 78%
    06:00 -22°C° 0 mm 3 m/s 464 mmHg 78%
    07:00 -22°C° 0 mm 3 m/s 464 mmHg 79%
    08:00 -22°C° 0 mm 3 m/s 464 mmHg 79%
    09:00 -19°C° 0 mm 3 m/s 465 mmHg 76%
    10:00 -16°C° 0 mm 2 m/s 466 mmHg 73%
    11:00 -14°C° 0 mm 2 m/s 468 mmHg 69%
    12:00 -13°C° 0 mm 2 m/s 468 mmHg 68%
    13:00 -14°C° 0 mm 3 m/s 468 mmHg 68%
    14:00 -13°C° 0 mm 3 m/s 467 mmHg 67%
    15:00 -13°C° 0 mm 2 m/s 467 mmHg 71%
    16:00 -14°C° 0 mm 2 m/s 466 mmHg 75%
    17:00 -15°C° 0 mm 2 m/s 466 mmHg 79%
    18:00 -17°C° 0 mm 2 m/s 465 mmHg 80%
    19:00 -18°C° 0 mm 2 m/s 465 mmHg 80%
    20:00 -21°C° 0 mm 3 m/s 464 mmHg 81%
    21:00 -21°C° 0 mm 3 m/s 464 mmHg 79%
    22:00 -22°C° 0 mm 3 m/s 464 mmHg 78%
    23:00 -22°C° 0 mm 3 m/s 464 mmHg 76%

    28 Janeiro, Domingo

    Tempo Temperatura Precipitação Vento Pressão Humidade
    00:00 -22°C° 0 mm 3 m/s 463 mmHg 74%
    01:00 -22°C° 0 mm 3 m/s 463 mmHg 73%
    02:00 -23°C° 0 mm 3 m/s 463 mmHg 71%
    03:00 -23°C° 0 mm 3 m/s 463 mmHg 70%
    04:00 -23°C° 0 mm 3 m/s 463 mmHg 69%
    05:00 -23°C° 0 mm 3 m/s 462 mmHg 67%
    06:00 -22°C° 0 mm 3 m/s 463 mmHg 66%
    07:00 -22°C° 0 mm 3 m/s 463 mmHg 65%
    08:00 -22°C° 0 mm 3 m/s 463 mmHg 64%
    09:00 -17°C° 0 mm 2 m/s 465 mmHg 61%
    10:00 -15°C° 0 mm 2 m/s 466 mmHg 57%
    11:00 -10°C° 0 mm 1 m/s 468 mmHg 54%
    12:00 -12°C° 0 mm 2 m/s 468 mmHg 55%
    13:00 -10°C° 0 mm 2 m/s 468 mmHg 56%
    14:00 -9°C° 0 mm 2 m/s 468 mmHg 57%
    15:00 -10°C° 0 mm 2 m/s 467 mmHg 61%
    16:00 -12°C° 0 mm 2 m/s 467 mmHg 66%
    17:00 -14°C° 0 mm 3 m/s 466 mmHg 70%
    18:00 -15°C° 0,1 mm 3 m/s 466 mmHg 73%
    19:00 -15°C° 0,1 mm 3 m/s 466 mmHg 76%
    20:00 -16°C° 0,1 mm 3 m/s 466 mmHg 78%
    21:00 -17°C° 0,2 mm 4 m/s 466 mmHg 80%
    22:00 -17°C° 0,2 mm 4 m/s 466 mmHg 81%
    23:00 -17°C° 0,2 mm 4 m/s 467 mmHg 83%
    Mostrar mais